Wetterdaten: Woche 18.04.05 - 24.04.05 (KW16)
Datum Zeit Temperatur Luftfeuchte Luftdruck Niederschlag Windrichtung Wind
18.04.2005 00:00 4,9 C 99 % 1003 hPa 2,0 l/m S 12,8 km/h (3 Bft)
18.04.2005 01:00 4,6 C 100 % 1002 hPa 4,0 l/m S 16,5 km/h (3 Bft)
18.04.2005 02:00 4,5 C 100 % 1002 hPa 1,0 l/m S 14,0 km/h (3 Bft)
18.04.2005 03:00 4,4 C 100 % 1002 hPa 0,0 l/m S 10,5 km/h (2 Bft)
18.04.2005 04:00 4,5 C 100 % 1003 hPa 0,0 l/m S 10,0 km/h (2 Bft)
18.04.2005 05:00 4,5 C 100 % 1003 hPa 0,0 l/m S-SW 13,3 km/h (3 Bft)
18.04.2005 06:00 4,4 C 100 % 1003 hPa 1,0 l/m S-SW 10,9 km/h (2 Bft)
18.04.2005 07:00 4,6 C 100 % 1003 hPa 0,0 l/m S 14,8 km/h (3 Bft)
18.04.2005 08:00 4,8 C 100 % 1004 hPa 0,0 l/m S-SW 12,2 km/h (2 Bft)
18.04.2005 09:00 5,2 C 100 % 1004 hPa 0,0 l/m S-SW 11,2 km/h (2 Bft)
18.04.2005 10:00 5,7 C 100 % 1004 hPa 0,0 l/m S 14,2 km/h (3 Bft)
18.04.2005 11:00 6,0 C 100 % 1004 hPa 0,0 l/m S 15,1 km/h (3 Bft)
18.04.2005 12:00 6,6 C 100 % 1004 hPa 0,0 l/m S 11,9 km/h (2 Bft)
18.04.2005 13:00 6,9 C 100 % 1004 hPa 0,0 l/m S 14,0 km/h (3 Bft)
18.04.2005 14:00 6,9 C 100 % 1004 hPa 0,0 l/m S 15,6 km/h (3 Bft)
18.04.2005 15:00 7,5 C 100 % 1004 hPa 0,0 l/m S-SW 16,6 km/h (3 Bft)
18.04.2005 16:00 8,2 C 98 % 1003 hPa 0,0 l/m S-SW 11,6 km/h (2 Bft)
18.04.2005 17:00 8,6 C 95 % 1003 hPa 0,0 l/m S 9,9 km/h (2 Bft)
18.04.2005 18:00 8,6 C 95 % 1003 hPa 0,0 l/m S-SW 10,2 km/h (2 Bft)
18.04.2005 19:00 8,5 C 97 % 1003 hPa 1,0 l/m S-SW 3,9 km/h (1 Bft)
18.04.2005 20:00 8,3 C 98 % 1004 hPa 0,0 l/m S 2,7 km/h (1 Bft)
18.04.2005 21:00 8,1 C 99 % 1004 hPa 1,0 l/m N 0,0 km/h (0 Bft)
18.04.2005 22:00 8,0 C 100 % 1004 hPa 1,0 l/m S-SO 0,8 km/h (0 Bft)
18.04.2005 23:00 7,8 C 100 % 1004 hPa 1,0 l/m S 2,8 km/h (1 Bft)
19.04.2005 00:00 7,7 C 100 % 1004 hPa 2,0 l/m S-SW 1,3 km/h (1 Bft)
19.04.2005 01:00 7,6 C 100 % 1004 hPa 0,0 l/m S 2,9 km/h (1 Bft)
19.04.2005 02:00 7,6 C 100 % 1003 hPa 1,0 l/m S-SO 4,1 km/h (1 Bft)
19.04.2005 03:00 7,5 C 100 % 1003 hPa 2,0 l/m S 0,8 km/h (0 Bft)
19.04.2005 04:00 7,6 C 100 % 1003 hPa 0,0 l/m S-SW 7,7 km/h (2 Bft)
19.04.2005 05:00 7,5 C 100 % 1003 hPa 1,0 l/m S-SW 3,2 km/h (1 Bft)
19.04.2005 06:00 7,5 C 100 % 1003 hPa 1,0 l/m S 2,0 km/h (1 Bft)
19.04.2005 07:00 7,5 C 100 % 1003 hPa 1,0 l/m S-SW 6,0 km/h (2 Bft)
19.04.2005 08:00 7,7 C 100 % 1004 hPa 1,0 l/m SW 8,2 km/h (2 Bft)
19.04.2005 09:00 7,9 C 100 % 1004 hPa 1,0 l/m W-SW 8,9 km/h (2 Bft)
19.04.2005 10:00 8,3 C 99 % 1004 hPa 1,0 l/m W-SW 9,8 km/h (2 Bft)
19.04.2005 11:00 8,1 C 94 % 1005 hPa 0,0 l/m W-SW 15,9 km/h (3 Bft)
19.04.2005 12:00 8,2 C 91 % 1005 hPa 2,0 l/m W 16,7 km/h (3 Bft)
19.04.2005 13:00 8,3 C 89 % 1006 hPa 0,0 l/m W 13,2 km/h (3 Bft)
19.04.2005 14:00 8,7 C 87 % 1006 hPa 0,0 l/m W 10,5 km/h (2 Bft)
19.04.2005 15:00 8,8 C 89 % 1006 hPa 1,0 l/m W-SW 8,0 km/h (2 Bft)
19.04.2005 16:00 8,8 C 89 % 1005 hPa 0,0 l/m W-SW 8,9 km/h (2 Bft)
19.04.2005 17:00 8,7 C 89 % 1005 hPa 0,0 l/m S-SW 7,4 km/h (2 Bft)
19.04.2005 18:00 8,4 C 89 % 1006 hPa 0,0 l/m S-SO 5,6 km/h (1 Bft)
19.04.2005 19:00 8,1 C 91 % 1006 hPa 0,0 l/m W-SW 8,0 km/h (2 Bft)
19.04.2005 20:00 7,2 C 86 % 1007 hPa 0,0 l/m W-SW 4,1 km/h (1 Bft)
19.04.2005 21:00 6,9 C 90 % 1007 hPa 0,0 l/m N 0,3 km/h (0 Bft)
19.04.2005 22:00 6,6 C 96 % 1007 hPa 0,0 l/m S 5,6 km/h (1 Bft)
19.04.2005 23:00 6,2 C 99 % 1007 hPa 1,0 l/m S 6,5 km/h (2 Bft)
20.04.2005 00:00 6,0 C 100 % 1007 hPa 3,0 l/m W-SW 4,4 km/h (1 Bft)
20.04.2005 01:00 5,4 C 100 % 1007 hPa 1,0 l/m S 0,7 km/h (0 Bft)
20.04.2005 02:00 5,2 C 100 % 1007 hPa 1,0 l/m S 5,7 km/h (1 Bft)
20.04.2005 03:00 5,3 C 100 % 1007 hPa 0,0 l/m N-NO 2,9 km/h (1 Bft)
20.04.2005 04:00 5,3 C 100 % 1007 hPa 2,0 l/m S 7,9 km/h (2 Bft)
20.04.2005 05:00 5,3 C 100 % 1006 hPa 0,0 l/m S 6,8 km/h (2 Bft)
20.04.2005 06:00 5,3 C 100 % 1006 hPa 1,0 l/m S 9,7 km/h (2 Bft)
20.04.2005 07:00 5,3 C 100 % 1007 hPa 0,0 l/m O-NO 2,0 km/h (1 Bft)
20.04.2005 08:00 5,5 C 100 % 1007 hPa 1,0 l/m N 0,3 km/h (0 Bft)
20.04.2005 09:00 5,7 C 100 % 1007 hPa 2,0 l/m W-SW 1,8 km/h (1 Bft)
20.04.2005 10:00 6,1 C 99 % 1007 hPa 0,0 l/m W 4,1 km/h (1 Bft)
20.04.2005 11:00 6,5 C 96 % 1008 hPa 1,0 l/m W 4,4 km/h (1 Bft)
20.04.2005 12:00 6,5 C 96 % 1008 hPa 0,0 l/m W 3,7 km/h (1 Bft)
20.04.2005 13:00 6,8 C 95 % 1008 hPa 1,0 l/m W-SW 6,5 km/h (2 Bft)
20.04.2005 14:00 7,4 C 89 % 1008 hPa 0,0 l/m W 13,3 km/h (3 Bft)
20.04.2005 15:00 7,4 C 86 % 1008 hPa 0,0 l/m W 17,8 km/h (3 Bft)
20.04.2005 16:00 6,9 C 87 % 1009 hPa 0,0 l/m W 13,5 km/h (3 Bft)
20.04.2005 17:00 6,8 C 88 % 1009 hPa 1,0 l/m W-NW 12,4 km/h (3 Bft)
20.04.2005 18:00 6,5 C 88 % 1010 hPa 0,0 l/m W-NW 8,6 km/h (2 Bft)
20.04.2005 19:00 5,9 C 90 % 1010 hPa 1,0 l/m NW 9,9 km/h (2 Bft)
20.04.2005 20:00 5,0 C 92 % 1011 hPa 0,0 l/m W-NW 10,3 km/h (2 Bft)
20.04.2005 21:00 4,5 C 95 % 1012 hPa 1,0 l/m W 5,5 km/h (1 Bft)
20.04.2005 22:00 4,4 C 97 % 1012 hPa 2,0 l/m W 7,3 km/h (2 Bft)
20.04.2005 23:00 4,4 C 99 % 1012 hPa 0,0 l/m W 7,4 km/h (2 Bft)
21.04.2005 00:00 4,5 C 99 % 1013 hPa 0,0 l/m W 1,7 km/h (1 Bft)
21.04.2005 01:00 4,5 C 99 % 1013 hPa 1,0 l/m W 0,7 km/h (0 Bft)
21.04.2005 02:00 4,6 C 100 % 1013 hPa 0,0 l/m N 0,0 km/h (0 Bft)
21.04.2005 03:00 4,8 C 100 % 1014 hPa 0,0 l/m N 0,0 km/h (0 Bft)
21.04.2005 04:00 4,8 C 100 % 1014 hPa 0,0 l/m N 4,3 km/h (1 Bft)
21.04.2005 05:00 4,0 C 99 % 1014 hPa 0,0 l/m N-NW 10,1 km/h (2 Bft)
21.04.2005 06:00 3,2 C 97 % 1015 hPa 0,0 l/m N-NW 5,0 km/h (1 Bft)
21.04.2005 07:00 2,6 C 97 % 1015 hPa 0,0 l/m N 7,7 km/h (2 Bft)
21.04.2005 08:00 3,2 C 91 % 1016 hPa 0,0 l/m NO 13,2 km/h (3 Bft)
21.04.2005 09:00 5,1 C 73 % 1016 hPa 0,0 l/m N-NO 15,7 km/h (3 Bft)
21.04.2005 10:00 6,7 C 61 % 1016 hPa 0,0 l/m O-NO 16,2 km/h (3 Bft)
21.04.2005 11:00 8,0 C 51 % 1016 hPa 0,0 l/m O-NO 19,4 km/h (3 Bft)
21.04.2005 12:00 8,7 C 46 % 1016 hPa 0,0 l/m NO 16,7 km/h (3 Bft)
21.04.2005 13:00 9,2 C 45 % 1016 hPa 0,0 l/m N-NO 16,2 km/h (3 Bft)
21.04.2005 14:00 9,4 C 43 % 1016 hPa 0,0 l/m N 15,0 km/h (3 Bft)
21.04.2005 15:00 10,0 C 41 % 1016 hPa 0,0 l/m N-NO 15,0 km/h (3 Bft)
21.04.2005 16:00 9,6 C 40 % 1016 hPa 0,0 l/m N-NO 13,5 km/h (3 Bft)
21.04.2005 17:00 10,2 C 36 % 1016 hPa 0,0 l/m N-NO 13,8 km/h (3 Bft)
21.04.2005 18:00 10,2 C 34 % 1016 hPa 0,0 l/m N-NO 12,6 km/h (3 Bft)
21.04.2005 19:00 8,5 C 38 % 1016 hPa 0,0 l/m O-NO 12,9 km/h (3 Bft)
21.04.2005 20:00 6,6 C 44 % 1017 hPa 0,0 l/m O-NO 4,4 km/h (1 Bft)
21.04.2005 21:00 3,9 C 55 % 1017 hPa 0,0 l/m N 0,0 km/h (0 Bft)
21.04.2005 22:00 2,5 C 62 % 1018 hPa 0,0 l/m N 0,0 km/h (0 Bft)
21.04.2005 23:00 1,5 C 67 % 1018 hPa 0,0 l/m N 0,0 km/h (0 Bft)
22.04.2005 00:00 0,8 C 71 % 1018 hPa 0,0 l/m N 0,0 km/h (0 Bft)
22.04.2005 01:00 0,4 C 73 % 1018 hPa 0,0 l/m N 0,0 km/h (0 Bft)
22.04.2005 02:00 -0,2 C 76 % 1017 hPa 0,0 l/m W-NW 2,2 km/h (1 Bft)
22.04.2005 03:00 -0,5 C 79 % 1017 hPa 0,0 l/m N 0,0 km/h (0 Bft)
22.04.2005 04:00 -1,0 C 81 % 1017 hPa 0,0 l/m W-NW 0,2 km/h (0 Bft)
22.04.2005 05:00 -1,6 C 82 % 1017 hPa 0,0 l/m N 0,0 km/h (0 Bft)
22.04.2005 06:00 -1,9 C 86 % 1017 hPa 0,0 l/m W-NW 0,5 km/h (0 Bft)
22.04.2005 07:00 -1,1 C 88 % 1017 hPa 0,0 l/m W-NW 0,9 km/h (0 Bft)
22.04.2005 08:00 1,3 C 83 % 1017 hPa 0,0 l/m N 0,3 km/h (0 Bft)
22.04.2005 09:00 5,7 C 55 % 1017 hPa 0,0 l/m N-NO 5,2 km/h (1 Bft)
22.04.2005 10:00 9,5 C 40 % 1017 hPa 0,0 l/m O 12,8 km/h (3 Bft)
22.04.2005 11:00 11,2 C 35 % 1017 hPa 0,0 l/m O 11,7 km/h (2 Bft)
22.04.2005 12:00 12,3 C 33 % 1017 hPa 0,0 l/m N 10,0 km/h (2 Bft)
22.04.2005 13:00 13,0 C 31 % 1016 hPa 0,0 l/m N 11,0 km/h (2 Bft)
22.04.2005 14:00 14,0 C 30 % 1016 hPa 0,0 l/m O 9,5 km/h (2 Bft)
22.04.2005 15:00 14,6 C 29 % 1015 hPa 0,0 l/m N 7,5 km/h (2 Bft)
22.04.2005 16:00 15,1 C 28 % 1015 hPa 0,0 l/m NO 7,8 km/h (2 Bft)
22.04.2005 17:00 15,5 C 27 % 1014 hPa 0,0 l/m S-SW 5,7 km/h (1 Bft)
22.04.2005 18:00 15,3 C 27 % 1014 hPa 0,0 l/m NO 7,8 km/h (2 Bft)
22.04.2005 19:00 13,7 C 30 % 1014 hPa 0,0 l/m N 6,4 km/h (2 Bft)
22.04.2005 20:00 10,8 C 41 % 1014 hPa 0,0 l/m N 0,1 km/h (0 Bft)
22.04.2005 21:00 7,7 C 51 % 1014 hPa 0,0 l/m N 0,0 km/h (0 Bft)
22.04.2005 22:00 5,9 C 57 % 1014 hPa 0,0 l/m N 0,0 km/h (0 Bft)
22.04.2005 23:00 4,6 C 63 % 1014 hPa 0,0 l/m N 0,0 km/h (0 Bft)
23.04.2005 00:00 3,9 C 64 % 1014 hPa 0,0 l/m W-NW 2,5 km/h (1 Bft)
23.04.2005 01:00 3,3 C 65 % 1014 hPa 0,0 l/m NW 2,9 km/h (1 Bft)
23.04.2005 02:00 2,5 C 69 % 1014 hPa 0,0 l/m N 0,0 km/h (0 Bft)
23.04.2005 03:00 1,6 C 73 % 1014 hPa 0,0 l/m N 0,0 km/h (0 Bft)
23.04.2005 04:00 0,9 C 78 % 1013 hPa 0,0 l/m N 0,0 km/h (0 Bft)
23.04.2005 05:00 0,5 C 81 % 1013 hPa 0,0 l/m N 0,0 km/h (0 Bft)
23.04.2005 06:00 0,5 C 84 % 1013 hPa 0,0 l/m N 0,0 km/h (0 Bft)
23.04.2005 07:00 1,5 C 84 % 1014 hPa 0,0 l/m N 0,3 km/h (0 Bft)
23.04.2005 08:00 3,5 C 77 % 1014 hPa 0,0 l/m N 0,0 km/h (0 Bft)
23.04.2005 09:00 7,3 C 61 % 1014 hPa 0,0 l/m O 3,3 km/h (1 Bft)
23.04.2005 10:00 10,2 C 50 % 1013 hPa 0,0 l/m SO 6,9 km/h (2 Bft)
23.04.2005 11:00 12,6 C 48 % 1013 hPa 0,0 l/m S 9,8 km/h (2 Bft)
23.04.2005 12:00 15,1 C 42 % 1013 hPa 0,0 l/m W-SW 6,9 km/h (2 Bft)
23.04.2005 13:00 15,9 C 39 % 1013 hPa 0,0 l/m W 7,3 km/h (2 Bft)
23.04.2005 14:00 16,7 C 38 % 1012 hPa 0,0 l/m S-SO 5,5 km/h (1 Bft)
23.04.2005 15:00 15,3 C 43 % 1012 hPa 0,0 l/m W-SW 12,5 km/h (3 Bft)
23.04.2005 16:00 12,6 C 61 % 1013 hPa 0,0 l/m W 13,8 km/h (3 Bft)
23.04.2005 17:00 11,4 C 74 % 1013 hPa 1,0 l/m W-SW 4,5 km/h (1 Bft)
23.04.2005 18:00 10,4 C 85 % 1013 hPa 1,0 l/m W 0,8 km/h (0 Bft)
23.04.2005 19:00 10,0 C 90 % 1013 hPa 1,0 l/m S-SW 1,1 km/h (1 Bft)
23.04.2005 20:00 9,6 C 95 % 1013 hPa 1,0 l/m S 7,8 km/h (2 Bft)
23.04.2005 21:00 9,1 C 99 % 1014 hPa 0,0 l/m S 10,7 km/h (2 Bft)
23.04.2005 22:00 9,0 C 100 % 1013 hPa 0,0 l/m S-SO 3,8 km/h (1 Bft)
23.04.2005 23:00 8,8 C 100 % 1013 hPa 0,0 l/m S 4,7 km/h (1 Bft)
24.04.2005 00:00 8,3 C 100 % 1013 hPa 0,0 l/m S-SW 2,2 km/h (1 Bft)
24.04.2005 01:00 7,7 C 100 % 1013 hPa 0,0 l/m SO 0,6 km/h (0 Bft)
24.04.2005 02:00 7,2 C 100 % 1013 hPa 0,0 l/m N 0,0 km/h (0 Bft)
24.04.2005 03:00 7,1 C 100 % 1013 hPa 0,0 l/m N 0,0 km/h (0 Bft)
24.04.2005 04:00 7,0 C 100 % 1013 hPa 0,0 l/m N 0,0 km/h (0 Bft)
24.04.2005 05:00 7,0 C 100 % 1012 hPa 1,0 l/m N 0,0 km/h (0 Bft)
24.04.2005 06:00 7,1 C 100 % 1013 hPa 0,0 l/m N 0,0 km/h (0 Bft)
24.04.2005 07:00 7,3 C 100 % 1012 hPa 0,0 l/m N 0,0 km/h (0 Bft)
24.04.2005 08:00 7,7 C 100 % 1013 hPa 0,0 l/m N 0,0 km/h (0 Bft)
24.04.2005 09:00 8,2 C 100 % 1013 hPa 1,0 l/m W 0,2 km/h (0 Bft)
24.04.2005 10:00 9,6 C 100 % 1013 hPa 0,0 l/m S 2,5 km/h (1 Bft)
24.04.2005 11:00 10,7 C 100 % 1013 hPa 0,0 l/m S 6,5 km/h (2 Bft)
24.04.2005 12:00 12,1 C 94 % 1012 hPa 0,0 l/m O 6,8 km/h (2 Bft)
24.04.2005 13:00 13,0 C 81 % 1012 hPa 1,0 l/m S 3,4 km/h (1 Bft)
24.04.2005 14:00 13,3 C 82 % 1012 hPa 0,0 l/m O-NO 4,1 km/h (1 Bft)
24.04.2005 15:00 13,9 C 74 % 1011 hPa 0,0 l/m O-SO 1,5 km/h (1 Bft)
24.04.2005 16:00 13,7 C 75 % 1011 hPa 0,0 l/m O-NO 4,1 km/h (1 Bft)
24.04.2005 17:00 12,9 C 84 % 1010 hPa 0,0 l/m N 6,9 km/h (2 Bft)
24.04.2005 18:00 12,1 C 89 % 1010 hPa 0,0 l/m N 10,6 km/h (2 Bft)
24.04.2005 19:00 11,5 C 90 % 1010 hPa 0,0 l/m N 8,0 km/h (2 Bft)
24.04.2005 20:00 11,1 C 95 % 1010 hPa 0,0 l/m N 7,7 km/h (2 Bft)
24.04.2005 21:00 10,7 C 96 % 1010 hPa 0,0 l/m N-NW 3,2 km/h (1 Bft)
24.04.2005 22:00 10,5 C 97 % 1010 hPa 0,0 l/m N 5,6 km/h (1 Bft)
24.04.2005 23:00 10,4 C 98 % 1010 hPa 0,0 l/m O 0,5 km/h (0 Bft)
Min-Datum _ 22.04.05 22.04.05 18.04.05 - - 18.04.05
_ Min-Zeit 06:06 16:16 00:00 - - 00:24
Minimum _ -1,9 C 27 % 1002 hPa - - 0,0 km/h (0 Bft)
Max-Datum _ 23.04.05 18.04.05 21.04.05 18.04.05 - 18.04.05
_ Max-Zeit 14:08 00:34 22:28 01:51 - 01:36
Maximum _ 17,1 C 100 % 1018 hPa 4,0 l/m - 33,8 km/h
S (5 Bft)
Durchschnitt _ 7,3 C 82 % 1011 hPa #53,0 l/m S 6,4 km/h (2 Bft)

Durchschnitt Minimum Temp.6,9 C
Durchschnitt Maximum Temp.7,6 C